| time (UTC) | temp F | wind direction | speed knots | gust knots | rain 1hr in | rain 24hr in | rain mn in | humidity % | barometer mb |
| 20260508060043 | 50 | 69 | 3.5 | 7.8 | 0.00 | 0.06 | 0.06 | 92 | 1014.5 |
| 20260508054600 | 50 | 86 | 3.5 | 7.8 | 0.00 | 0.06 | 0.06 | 92 | 1014.4 |
| 20260508053041 | 49 | 68 | 1.7 | 7.0 | 0.00 | 0.06 | 0.06 | 92 | 1014.4 |
| 20260508051539 | 49 | 47 | 2.6 | 6.1 | 0.00 | 0.06 | 0.06 | 91 | 1014.3 |
| 20260508050047 | 48 | 101 | 1.7 | 6.1 | 0.01 | 0.06 | 0.06 | 91 | 1014.3 |
| 20260508044600 | 49 | 54 | 2.6 | 7.8 | 0.00 | 0.05 | 0.05 | 91 | 1014.0 |
| 20260508043043 | 49 | 64 | 2.6 | 8.7 | 0.01 | 0.05 | 0.05 | 91 | 1014.1 |
| 20260508041549 | 49 | 63 | 3.5 | 7.0 | 0.01 | 0.05 | 0.05 | 91 | 1014.1 |
| 20260508040043 | 49 | 94 | 2.6 | 9.6 | 0.01 | 0.04 | 0.04 | 90 | 1014.1 |
| 20260508034544 | 50 | 111 | 3.5 | 8.7 | 0.01 | 0.04 | 0.04 | 89 | 1014.4 |
| 20260508033045 | 49 | 81 | 2.6 | 7.0 | 0.00 | 0.03 | 0.03 | 89 | 1014.2 |
| 20260508031555 | 49 | 45 | 3.5 | 7.8 | 0.01 | 0.03 | 0.03 | 89 | 1014.1 |
| 20260508030051 | 50 | 42 | 2.6 | 7.8 | 0.02 | 0.03 | 0.03 | 88 | 1014.3 |
| 20260508024540 | 49 | 101 | 1.7 | 5.2 | 0.03 | 0.03 | 0.03 | 86 | 1014.4 |
| 20260508023043 | 49 | 70 | 0.9 | 5.2 | 0.03 | 0.03 | 0.03 | 85 | 1014.5 |
| 20260508021543 | 50 | 89 | 1.7 | 10.4 | 0.01 | 0.01 | 0.01 | 85 | 1014.5 |
| 20260508020044 | 50 | 47 | 1.7 | 7.0 | 0.00 | 0.00 | 0.00 | 83 | 1014.5 |
| 20260508014543 | 51 | 82 | 1.7 | 6.1 | 0.00 | 0.00 | 0.00 | 79 | 1014.6 |
| 20260508013042 | 50 | 92 | 1.7 | 3.5 | 0.00 | 0.00 | 0.00 | 81 | 1014.6 |
| 20260508011539 | 50 | 103 | 2.6 | 6.1 | 0.00 | 0.00 | 0.00 | 82 | 1014.5 |
| 20260508010042 | 51 | 119 | 5.2 | 10.4 | 0.00 | 0.00 | 0.00 | 86 | 1014.7 |
| 20260508004539 | 52 | 116 | 2.6 | 8.7 | 0.00 | 0.00 | 0.00 | 89 | 1014.7 |
| 20260508003058 | 52 | 108 | 2.6 | 7.0 | 0.00 | 0.00 | 0.00 | 89 | 1014.7 |
| 20260508001544 | 52 | 94 | 1.7 | 5.2 | 0.00 | 0.00 | 0.00 | 89 | 1014.7 |
| 20260508000041 | 52 | 99 | 1.7 | 5.2 | 0.00 | 0.00 | 0.00 | 89 | 1014.6 |
| 20260507234541 | 52 | 86 | 1.7 | 3.5 | 0.00 | 0.00 | 0.00 | 88 | 1014.7 |
| 20260507233040 | 52 | 117 | 1.7 | 5.2 | 0.00 | 0.00 | 0.00 | 88 | 1014.8 |
| 20260507231547 | 52 | 109 | 0.9 | 3.5 | 0.00 | 0.00 | 0.00 | 88 | 1014.8 |
| 20260507230044 | 52 | 112 | 1.7 | 5.2 | 0.00 | 0.00 | 0.00 | 88 | 1014.9 |
| 20260507224557 | 51 | 121 | 2.6 | 7.0 | 0.00 | 0.00 | 0.00 | 89 | 1015.0 |
| 20260507223046 | 51 | 118 | 0.9 | 3.5 | 0.00 | 0.00 | 0.00 | 89 | 1014.9 |
| 20260507221541 | 51 | 115 | 0.0 | 2.6 | 0.00 | 0.00 | 0.00 | 89 | 1014.9 |
| 20260507220044 | 51 | 0 | 0.9 | 2.6 | 0.00 | 0.00 | 0.00 | 88 | 1014.8 |
| 20260507214542 | 51 | 118 | 1.7 | 3.5 | 0.00 | 0.00 | 0.00 | 86 | 1014.8 |
| 20260507213048 | 51 | 142 | 0.9 | 3.5 | 0.00 | 0.00 | 0.00 | 86 | 1015.0 |
| 20260507211542 | 51 | 142 | 0.9 | 2.6 | 0.00 | 0.00 | 0.00 | 87 | 1014.8 |
| 20260507210106 | 51 | 0 | 0.0 | 1.7 | 0.00 | 0.00 | 0.00 | 88 | 1014.9 |
| 20260507204538 | 51 | 146 | 0.0 | 3.5 | 0.00 | 0.00 | 0.00 | 88 | 1014.7 |
| 20260507203045 | 52 | 146 | 2.6 | 7.8 | 0.00 | 0.00 | 0.00 | 87 | 1014.7 |
| 20260507201544 | 52 | 0 | 0.9 | 3.5 | 0.00 | 0.00 | 0.00 | 85 | 1014.5 |
| 20260507200056 | 52 | 103 | 0.0 | 1.7 | 0.00 | 0.00 | 0.00 | 83 | 1014.3 |
| 20260507194542 | 51 | 0 | 0.0 | 1.7 | 0.00 | 0.00 | 0.00 | 83 | 1014.2 |
| 20260507193103 | 51 | 103 | 0.9 | 3.5 | 0.00 | 0.00 | 0.00 | 83 | 1014.1 |
| 20260507191542 | 52 | 103 | 0.9 | 2.6 | 0.00 | 0.00 | 0.00 | 82 | 1014.0 |
| 20260507190040 | 52 | 103 | 0.9 | 2.6 | 0.00 | 0.00 | 0.00 | 81 | 1014.1 |
| 20260507184544 | 53 | 103 | 0.0 | 1.7 | 0.00 | 0.00 | 0.00 | 80 | 1014.1 |
| 20260507183049 | 53 | 103 | 0.9 | 2.6 | 0.00 | 0.00 | 0.00 | 78 | 1014.2 |
| 20260507181543 | 54 | 126 | 0.0 | 0.9 | 0.00 | 0.00 | 0.00 | 79 | 1014.2 |
| 20260507180040 | 53 | 126 | 0.9 | 6.1 | 0.00 | 0.00 | 0.00 | 79 | 1014.3 |
| 20260507174546 | 53 | 120 | 4.3 | 7.8 | 0.00 | 0.00 | 0.00 | 78 | 1014.2 |
| 20260507173101 | 54 | 160 | 4.3 | 7.0 | 0.00 | 0.00 | 0.00 | 77 | 1014.2 |
| 20260507171546 | 54 | 128 | 3.5 | 7.8 | 0.00 | 0.00 | 0.00 | 79 | 1014.3 |
| 20260507170048 | 55 | 141 | 5.2 | 13.0 | 0.00 | 0.00 | 0.00 | 79 | 1014.3 |
| 20260507164548 | 55 | 157 | 7.0 | 11.3 | 0.00 | 0.00 | 0.00 | 78 | 1014.2 |
| 20260507163040 | 55 | 154 | 4.3 | 8.7 | 0.00 | 0.00 | 0.00 | 81 | 1014.3 |
| 20260507161553 | 55 | 145 | 5.2 | 7.8 | 0.00 | 0.00 | 0.00 | 79 | 1014.2 |
| 20260507160057 | 55 | 150 | 7.0 | 13.0 | 0.00 | 0.00 | 0.00 | 81 | 1014.3 |
| 20260507154546 | 57 | 143 | 5.2 | 8.7 | 0.00 | 0.00 | 0.00 | 75 | 1014.3 |
| 20260507153044 | 55 | 179 | 7.0 | 11.3 | 0.00 | 0.00 | 0.00 | 79 | 1014.4 |
| 20260507151540 | 55 | 157 | 6.1 | 9.6 | 0.00 | 0.00 | 0.00 | 78 | 1014.4 |
| 20260507150038 | 56 | 155 | 4.3 | 7.8 | 0.00 | 0.00 | 0.00 | 78 | 1014.3 |
| 20260507144548 | 55 | 186 | 2.6 | 5.2 | 0.00 | 0.00 | 0.00 | 78 | 1014.3 |
| 20260507143045 | 55 | 139 | 2.6 | 6.1 | 0.00 | 0.00 | 0.00 | 79 | 1014.4 |
| 20260507141549 | 55 | 191 | 2.6 | 5.2 | 0.00 | 0.00 | 0.00 | 78 | 1014.5 |
| 20260507140043 | 55 | 186 | 2.6 | 5.2 | 0.00 | 0.00 | 0.00 | 78 | 1014.8 |
| 20260507134544 | 55 | 161 | 2.6 | 5.2 | 0.00 | 0.00 | 0.00 | 80 | 1014.8 |
| 20260507133045 | 55 | 162 | 2.6 | 5.2 | 0.00 | 0.00 | 0.00 | 79 | 1014.8 |
| 20260507131545 | 55 | 140 | 2.6 | 5.2 | 0.00 | 0.00 | 0.00 | 79 | 1014.9 |
| 20260507130044 | 56 | 159 | 3.5 | 7.8 | 0.00 | 0.00 | 0.00 | 77 | 1015.0 |
| 20260507124543 | 57 | 187 | 4.3 | 7.0 | 0.00 | 0.00 | 0.00 | 78 | 1014.9 |
| 20260507123045 | 57 | 159 | 3.5 | 7.8 | 0.00 | 0.00 | 0.00 | 79 | 1014.9 |
| 20260507121541 | 56 | 137 | 3.5 | 7.8 | 0.00 | 0.00 | 0.00 | 76 | 1015.0 |
| 20260507120038 | 56 | 161 | 5.2 | 9.6 | 0.00 | 0.00 | 0.00 | 78 | 1014.9 |
| 20260507114543 | 56 | 194 | 4.3 | 8.7 | 0.00 | 0.00 | 0.00 | 79 | 1014.9 |
| 20260507113044 | 56 | 175 | 6.1 | 9.6 | 0.00 | 0.00 | 0.00 | 78 | 1014.9 |
| 20260507111545 | 56 | 168 | 6.1 | 11.3 | 0.00 | 0.00 | 0.00 | 79 | 1014.9 |
| 20260507110043 | 55 | 152 | 7.0 | 10.4 | 0.00 | 0.00 | 0.00 | 79 | 1014.9 |
| 20260507104541 | 54 | 144 | 7.0 | 12.2 | 0.00 | 0.00 | 0.00 | 81 | 1015.0 |
| 20260507103038 | 53 | 148 | 7.0 | 12.2 | 0.00 | 0.00 | 0.00 | 82 | 1015.0 |
| 20260507101538 | 54 | 159 | 7.0 | 13.0 | 0.00 | 0.00 | 0.00 | 83 | 1014.9 |
| 20260507100044 | 54 | 132 | 7.0 | 13.9 | 0.00 | 0.00 | 0.00 | 81 | 1015.0 |
| 20260507094544 | 54 | 134 | 7.8 | 15.6 | 0.00 | 0.00 | 0.00 | 82 | 1014.8 |
| 20260507093045 | 53 | 126 | 9.6 | 15.6 | 0.00 | 0.00 | 0.00 | 83 | 1014.7 |
| 20260507091540 | 53 | 142 | 10.4 | 14.8 | 0.00 | 0.00 | 0.00 | 83 | 1014.7 |
| 20260507090039 | 53 | 123 | 13.0 | 16.5 | 0.00 | 0.00 | 0.00 | 84 | 1014.7 |
| 20260507084541 | 53 | 142 | 8.7 | 16.5 | 0.00 | 0.00 | 0.00 | 84 | 1014.6 |
| 20260507083040 | 52 | 138 | 13.9 | 18.2 | 0.00 | 0.00 | 0.00 | 85 | 1014.5 |
| 20260507081543 | 52 | 144 | 8.7 | 14.8 | 0.00 | 0.00 | 0.00 | 84 | 1014.5 |
| 20260507080042 | 52 | 138 | 7.0 | 14.8 | 0.00 | 0.00 | 0.00 | 85 | 1014.5 |
| 20260507074542 | 51 | 117 | 7.0 | 17.4 | 0.00 | 0.00 | 0.00 | 86 | 1014.4 |
| 20260507073040 | 50 | 116 | 7.8 | 16.5 | 0.00 | 0.00 | 0.00 | 87 | 1014.4 |
| 20260507071537 | 49 | 146 | 7.0 | 13.9 | 0.00 | 0.00 | 0.00 | 87 | 1014.3 |
| 20260507070042 | 49 | 118 | 7.8 | 15.6 | 0.00 | 0.00 | 0.00 | 87 | 1014.1 |
| 20260507064545 | 49 | 110 | 4.3 | 13.9 | 0.00 | 0.00 | 0.00 | 86 | 1014.1 |
| 20260507063050 | 49 | 121 | 6.1 | 15.6 | 0.00 | 0.00 | 0.00 | 86 | 1014.1 |
| 20260507061543 | 49 | 92 | 7.0 | 16.5 | 0.00 | 0.00 | 0.00 | 86 | 1014.0 |